[[{"header":{"parameterUnit":"m.s-1","parameterCategory":1,"la1":30.2991,"la2":30.254,"lo1":-89.0895,"lo2":-89.0444,"dy":0.0017,"dx":0.0017,"nx":28,"ny":28,"refTime":"2024-12-01T03:00:00:Z","depth":0,"parameterNumber":2,"parameterNumberName":"U-component_of_WINDS"},"data":[0,0,0,0,0,0,0,0,0,0,0,0,0,0,0,0,0,0,0,0,0,0,0,0,0,0,0,0,0,0,0,0,0,0,0,0,0,0,0,0,0,0,0,0,0,0,0,0,0,0,0,0,0,0,0,0,0,0,-2.758,-2.7581,0,-2.7666,-2.7667,-2.7668,-2.7641,-2.7639,-2.7637,-2.7636,-2.7721,-2.7725,-2.7729,0,0,0,0,0,0,0,0,0,0,0,0,0,-2.739,-2.7394,-2.758,-2.7581,-2.7582,-2.7666,-2.7667,-2.7668,-2.7641,-2.7639,-2.7637,-2.7635,-2.772,-2.7724,-2.7729,0,0,0,0,0,0,0,0,0,0,0,0,0,-2.7474,-2.7395,-2.758,-2.7579,-2.758,-2.7665,-2.7667,-2.7668,-2.7642,-2.7639,-2.7636,-2.7634,-2.7718,-2.7724,-2.773,-2.7821,0,0,-2.7748,-2.775,0,0,0,0,0,0,0,0,-2.7469,-2.7481,-2.7578,-2.7579,-2.758,-2.764,-2.7631,-2.7719,-2.7642,-2.7618,-2.7636,-2.7632,-2.7696,-2.7704,-2.7726,-2.7825,-2.7828,-2.7748,-2.7752,-2.7754,-2.7756,0,0,0,0,0,0,0,-2.7464,-2.7477,-2.7614,-2.7579,-2.7581,-2.7573,-2.7582,-2.7648,-2.7671,-2.762,-2.7618,-2.7629,-2.7696,-2.772,-2.7727,-2.7829,-2.7748,-2.7753,-2.7757,-2.7759,-2.8006,-2.8009,0,0,0,0,0,0,-2.7457,-2.7473,-2.7611,-2.7616,-2.7517,-2.7579,-2.7589,-2.7623,-2.767,-2.7675,-2.7631,-2.7627,-2.7711,-2.772,-2.773,-2.7838,-2.7754,-2.776,-2.7763,-2.8003,-2.8006,-2.801,0,0,0,0,0,0,-2.7453,-2.747,-2.7608,-2.7544,-2.7561,-2.7585,-2.7624,-2.7627,-2.765,-2.7679,-2.7683,-2.7651,-2.7709,-2.7722,-2.7798,-2.7841,-2.7763,-2.7768,-2.7999,-2.8004,-2.8008,-2.8056,0,0,0,0,0,0,-2.7448,-2.7469,-2.7504,-2.7545,-2.7565,-2.7675,-2.7627,-2.763,-2.7661,-2.7657,-2.7699,-2.7703,-2.7708,-2.7789,-2.7804,-2.7848,-2.7773,-2.7996,-2.8001,-2.8007,-2.8051,-2.8062,-2.8071,0,0,0,0,0,-2.7442,-2.7514,-2.7506,-2.7523,-2.761,-2.7678,-2.7689,-2.7694,-2.7665,-2.77,-2.7718,-2.7702,-2.7834,-2.7797,-2.7814,-2.786,-2.7993,-2.8,-2.8006,-2.8046,-2.806,-2.8071,0,0,0,0,0,0,-2.7477,-2.7519,-2.7511,-2.7599,-2.7635,-2.7673,-2.7717,-2.7708,-2.7752,-2.7746,-2.775,-2.776,-2.7837,-2.7857,-2.7815,-2.7949,-2.7909,-2.7919,-2.7934,-2.7947,-2.7957,-2.795,-2.7778,0,0,0,0,0,-2.7495,-2.7548,-2.7582,-2.7656,-2.7675,-2.7693,-2.7723,-2.7724,-2.7761,-2.7776,-2.7799,-2.7835,-2.7885,-2.7917,-2.7964,-2.8054,-2.8062,-2.8094,-2.8104,-2.8112,-2.812,-2.8167,-2.8181,-2.8032,-2.8032,-2.8032,0,0,-2.7533,-2.7563,-2.7596,-2.7664,-2.7692,-2.7745,-2.7706,-2.7764,-2.7803,-2.7784,-2.7857,-2.7876,-2.7916,-2.7999,-2.8037,-2.8017,-2.8163,-2.8121,-2.8127,-2.8131,-2.8176,-2.819,-2.8202,-2.8036,-2.8035,-2.8035,0,0,-2.7629,-2.7658,-2.7722,-2.7751,-2.7794,-2.7805,-2.7821,-2.7861,-2.7872,-2.7946,-2.7932,-2.7979,-2.8065,-2.8093,-2.8119,-2.8226,-2.8212,-2.8241,-2.8293,-2.8339,-2.8351,-2.8361,-2.8397,-2.8411,-2.825,-2.825,-2.825,0,-2.767,-2.7751,-2.7756,-2.7816,-2.7845,-2.7831,-2.7896,-2.7923,-2.7979,-2.8,-2.7977,-2.8084,-2.811,-2.8199,-2.8225,-2.8247,-2.8263,-2.8235,-2.8349,-2.8359,-2.8369,-2.8404,-2.8418,-2.8253,-2.8252,-2.8252,-2.8252,0,-2.7798,-2.7854,-2.7901,-2.7956,-2.7991,-2.8053,-2.8067,-2.8102,-2.81,-2.8114,-2.8188,-2.8219,-2.8272,-2.8293,-2.8292,-2.8382,-2.8368,-2.8348,-2.8307,-2.8386,-2.8419,-2.8432,-2.8257,-2.8256,-2.8255,-2.8254,0,0,-2.7918,-2.7975,-2.7992,-2.8016,-2.8062,-2.8105,-2.8166,-2.8218,-2.8247,-2.8286,-2.8336,-2.8409,-2.839,-2.8419,-2.8421,-2.8462,-2.8542,-2.8436,-2.8437,-2.8453,-2.8641,-2.8655,-2.867,-2.8534,-2.8537,-2.8539,-2.8637,0,-2.8016,-2.8123,-2.813,-2.8226,-2.8277,-2.8265,-2.8317,-2.8351,-2.8365,-2.841,-2.8426,-2.8477,-2.8449,-2.8466,-2.8506,-2.8524,-2.858,-2.8517,-2.8579,-2.8581,-2.8567,-2.8687,-2.8702,-2.8793,-2.865,-2.8652,-2.8654,0,-2.8145,-2.8188,-2.829,-2.8328,-2.8349,-2.8397,-2.8444,-2.8488,-2.8525,-2.8533,-2.8566,-2.8562,-2.8623,-2.8581,-2.8664,-2.8622,-2.8647,-2.866,-2.8664,-2.8668,-2.8621,-2.8693,-2.8823,-2.8836,-2.8674,-2.8673,-2.8671,0,-2.8219,-2.8303,-2.8374,-2.8396,-2.8442,-2.8476,-2.8497,-2.8531,-2.8562,-2.8604,-2.8623,-2.8672,-2.8698,-2.8735,-2.8743,-2.8713,-2.8826,-2.8785,-2.8832,-2.8832,-2.8855,-2.8853,-2.8989,-2.8875,-2.8875,-2.8875,-2.8875,0,-2.8327,-2.8389,-2.8408,-2.8452,-2.8521,-2.8528,-2.8596,-2.8614,-2.8645,-2.8691,-2.8684,-2.8727,-2.8737,-2.8782,-2.8789,-2.8856,-2.8868,-2.8875,-2.8876,-2.8875,-2.8874,-2.889,-2.8883,-2.8879,-2.8878,-2.8877,-2.8876,0,-2.8421,-2.8437,-2.8513,-2.8551,-2.8562,-2.8611,-2.8643,-2.8685,-2.8699,-2.8757,-2.8771,-2.8793,-2.8846,-2.8858,-2.8921,-2.8926,-2.9004,-2.9,-2.8991,-2.899,-2.9036,-2.9031,-2.9185,-2.9205,-2.9081,-2.9082,-2.9083,0,-2.8488,-2.8536,-2.8579,-2.8609,-2.8632,-2.8682,-2.8713,-2.8722,-2.8754,-2.88,-2.8836,-2.8888,-2.8929,-2.9014,-2.9034,-2.9082,-2.9077,-2.9128,-2.9084,-2.9081,-2.9076,-2.9072,-2.9076,-2.9136,-2.9137,-2.9138,-2.9139,0,-2.8604,-2.861,-2.8655,-2.8704,-2.8741,-2.878,-2.8816,-2.8842,-2.8855,-2.8892,-2.8946,-2.8978,-2.9042,-2.9093,-2.9141,-2.9162,-2.9152,-2.9153,-2.9166,-2.9164,-2.9157,-2.916,-2.9012,-2.9149,-2.9148,-2.9147,-2.9147,-2.9147,-2.8686,-2.8727,-2.8763,-2.8814,-2.8843,-2.8877,-2.8917,-2.8936,-2.8982,-2.9035,-2.9037,-2.9095,-2.9131,-2.9194,-2.9217,-2.9262,-2.9246,-2.9266,-2.927,-2.9274,-2.9277,-2.9152,-2.9271,-2.9271,-2.9271,-2.927,-2.927,0,-2.88,-2.8823,-2.887,-2.8921,-2.8961,-2.895,-2.899,-2.9023,-2.9075,-2.9109,-2.915,-2.9211,-2.9261,-2.9286,-2.9334,-2.9365,-2.9362,-2.9378,-2.9374,-2.9379,-2.929,-2.9273,-2.9379,-2.9379,-2.9379,-2.9379,-2.9379,-2.9379,-2.8864,-2.8932,-2.8942,-2.9024,-2.9046,-2.9104,-2.9127,-2.9158,-2.9185,-2.9254,-2.9295,-2.9311,-2.9341,-2.9392,-2.9436,-2.9442,-2.946,-2.9477,-2.948,-2.9396,-2.9385,-2.9375,-2.9358,-2.9481,-2.9481,-2.9565,-2.9566,-2.9567]},{"header":{"parameterUnit":"m.s-1","parameterCategory":1,"la1":30.2991,"la2":30.254,"lo1":-89.0895,"lo2":-89.0444,"dy":0.0017,"dx":0.0017,"nx":28,"ny":28,"refTime":"2024-12-01T03:00:00:Z","depth":0,"parameterNumber":3,"parameterNumberName":"V-component_of_WINDS"},"data":[0,0,0,0,0,0,0,0,0,0,0,0,0,0,0,0,0,0,0,0,0,0,0,0,0,0,0,0,0,0,0,0,0,0,0,0,0,0,0,0,0,0,0,0,0,0,0,0,0,0,0,0,0,0,0,0,0,0,-0.177,-0.177,0,-0.1817,-0.1817,-0.1818,-0.1871,-0.1872,-0.1873,-0.1874,-0.1924,-0.1924,-0.1925,0,0,0,0,0,0,0,0,0,0,0,0,0,-0.1728,-0.1728,-0.177,-0.177,-0.1771,-0.1817,-0.1817,-0.1818,-0.1871,-0.1872,-0.1873,-0.1874,-0.1924,-0.1924,-0.1925,0,0,0,0,0,0,0,0,0,0,0,0,0,-0.1757,-0.1728,-0.1769,-0.1803,-0.1806,-0.1816,-0.1817,-0.1818,-0.1871,-0.1872,-0.1874,-0.1875,-0.1923,-0.1924,-0.1925,-0.1907,0,0,-0.1928,-0.1928,0,0,0,0,0,0,0,0,-0.1756,-0.1759,-0.1797,-0.1801,-0.1804,-0.1839,-0.1821,-0.1848,-0.1871,-0.1847,-0.1874,-0.1875,-0.1895,-0.1898,-0.1904,-0.1909,-0.1911,-0.1928,-0.1928,-0.1929,-0.1929,0,0,0,0,0,0,0,-0.1753,-0.1757,-0.1788,-0.1798,-0.1802,-0.1816,-0.1822,-0.1826,-0.1864,-0.1849,-0.1853,-0.1858,-0.1897,-0.1903,-0.1906,-0.1912,-0.1928,-0.1929,-0.1929,-0.193,-0.1904,-0.1902,0,0,0,0,0,0,-0.1746,-0.1755,-0.1787,-0.179,-0.1782,-0.1816,-0.1822,-0.1827,-0.1864,-0.187,-0.1856,-0.186,-0.1901,-0.1905,-0.1908,-0.1889,-0.1929,-0.193,-0.193,-0.1905,-0.1903,-0.1902,0,0,0,0,0,0,-0.1745,-0.1748,-0.1785,-0.1773,-0.1779,-0.1815,-0.182,-0.1827,-0.1834,-0.1869,-0.1876,-0.1856,-0.1902,-0.1907,-0.1906,-0.1891,-0.193,-0.1931,-0.1906,-0.1904,-0.1903,-0.185,0,0,0,0,0,0,-0.1744,-0.1748,-0.1741,-0.1773,-0.1779,-0.1782,-0.1819,-0.1827,-0.1835,-0.184,-0.1871,-0.1877,-0.1904,-0.1905,-0.1907,-0.1893,-0.1932,-0.1908,-0.1905,-0.1903,-0.1853,-0.1846,-0.1841,0,0,0,0,0,-0.1742,-0.1724,-0.174,-0.1744,-0.1771,-0.1781,-0.1785,-0.1815,-0.1833,-0.1827,-0.185,-0.1876,-0.1892,-0.1904,-0.1908,-0.1893,-0.1909,-0.1906,-0.1903,-0.1856,-0.1848,-0.1841,0,0,0,0,0,0,-0.169,-0.1729,-0.1747,-0.1739,-0.1756,-0.179,-0.1783,-0.1806,-0.1818,-0.1822,-0.186,-0.1867,-0.1862,-0.1878,-0.189,-0.1877,-0.1905,-0.1902,-0.1867,-0.186,-0.1854,-0.185,-0.1932,0,0,0,0,0,-0.1678,-0.1681,-0.1716,-0.1705,-0.1713,-0.1746,-0.1751,-0.1773,-0.1793,-0.18,-0.1823,-0.1842,-0.1851,-0.1856,-0.1867,-0.1856,-0.1863,-0.1848,-0.1841,-0.1836,-0.1834,-0.1829,-0.1823,-0.1893,-0.1893,-0.1893,0,0,-0.1652,-0.1674,-0.1674,-0.1696,-0.1711,-0.1715,-0.1752,-0.1754,-0.1757,-0.1801,-0.1802,-0.1819,-0.1842,-0.1836,-0.1835,-0.1849,-0.1816,-0.1833,-0.1828,-0.1829,-0.1826,-0.1819,-0.1813,-0.1891,-0.1892,-0.1892,0,0,-0.1607,-0.1624,-0.1618,-0.1632,-0.1655,-0.1678,-0.1676,-0.1706,-0.1719,-0.172,-0.1753,-0.1758,-0.1773,-0.1788,-0.1797,-0.1758,-0.1783,-0.1761,-0.1728,-0.1723,-0.1718,-0.1713,-0.1699,-0.1694,-0.1758,-0.1758,-0.1758,0,-0.1573,-0.1579,-0.1611,-0.1611,-0.162,-0.1659,-0.1653,-0.1666,-0.1691,-0.1696,-0.1712,-0.1732,-0.175,-0.1748,-0.1738,-0.1745,-0.1745,-0.1757,-0.1716,-0.1711,-0.1707,-0.1695,-0.1689,-0.1755,-0.1755,-0.1756,-0.1756,0,-0.1536,-0.154,-0.1531,-0.1554,-0.1562,-0.1559,-0.1591,-0.1595,-0.1616,-0.1637,-0.1638,-0.1661,-0.1677,-0.1678,-0.1699,-0.1679,-0.1687,-0.1709,-0.1737,-0.1697,-0.1686,-0.1681,-0.1751,-0.1752,-0.1753,-0.1754,0,0,-0.146,-0.15,-0.1497,-0.1508,-0.1536,-0.154,-0.1539,-0.1553,-0.1556,-0.1572,-0.1573,-0.1584,-0.1604,-0.1615,-0.1638,-0.1634,-0.1601,-0.1656,-0.1657,-0.1645,-0.1581,-0.1564,-0.1558,-0.1618,-0.1617,-0.1616,-0.1579,0,-0.142,-0.142,-0.1449,-0.1441,-0.1445,-0.1482,-0.1481,-0.1498,-0.1517,-0.1524,-0.1545,-0.1553,-0.1579,-0.1585,-0.1583,-0.1605,-0.1589,-0.1609,-0.1619,-0.1619,-0.1612,-0.1552,-0.1535,-0.1499,-0.1575,-0.1574,-0.1573,0,-0.1374,-0.1387,-0.1379,-0.1408,-0.141,-0.1409,-0.1425,-0.143,-0.1451,-0.1465,-0.1477,-0.1503,-0.1504,-0.153,-0.1533,-0.1546,-0.1552,-0.1563,-0.1563,-0.1565,-0.1594,-0.1553,-0.1488,-0.1482,-0.1567,-0.1567,-0.1568,0,-0.132,-0.1335,-0.1332,-0.1341,-0.1374,-0.1372,-0.1386,-0.1407,-0.1414,-0.1428,-0.1433,-0.1448,-0.1455,-0.1466,-0.1495,-0.1512,-0.1494,-0.1523,-0.1507,-0.1506,-0.1502,-0.1502,-0.1437,-0.1505,-0.1505,-0.1505,-0.1505,0,-0.1273,-0.1266,-0.1308,-0.1307,-0.1301,-0.1334,-0.1327,-0.1345,-0.1364,-0.1367,-0.14,-0.1401,-0.144,-0.1446,-0.1469,-0.1468,-0.1471,-0.1483,-0.1489,-0.148,-0.1479,-0.1485,-0.1488,-0.1504,-0.1504,-0.1504,-0.1505,0,-0.1211,-0.1239,-0.1238,-0.1269,-0.1277,-0.1271,-0.1298,-0.1298,-0.1319,-0.1322,-0.1325,-0.1358,-0.1367,-0.1397,-0.1414,-0.143,-0.1421,-0.1433,-0.1414,-0.1418,-0.14,-0.1401,-0.1337,-0.133,-0.1402,-0.1401,-0.1401,0,-0.1179,-0.1175,-0.1205,-0.1209,-0.1221,-0.1227,-0.1234,-0.1267,-0.1273,-0.1296,-0.1294,-0.1305,-0.1316,-0.1329,-0.1355,-0.1369,-0.1381,-0.1358,-0.1383,-0.1374,-0.1381,-0.1381,-0.1381,-0.1352,-0.1351,-0.135,-0.135,0,-0.112,-0.1134,-0.1142,-0.1156,-0.1163,-0.1175,-0.119,-0.1191,-0.1228,-0.1233,-0.1242,-0.1251,-0.1268,-0.1279,-0.1296,-0.1312,-0.1337,-0.1341,-0.1338,-0.1329,-0.1318,-0.1324,-0.1399,-0.1343,-0.1343,-0.1344,-0.1344,-0.1345,-0.1072,-0.107,-0.1091,-0.11,-0.1114,-0.1126,-0.1128,-0.1149,-0.1157,-0.1173,-0.1192,-0.1199,-0.122,-0.1245,-0.1259,-0.1265,-0.1279,-0.1274,-0.1273,-0.1272,-0.1267,-0.1317,-0.1268,-0.1269,-0.1269,-0.1269,-0.1269,0,-0.1015,-0.103,-0.1037,-0.1056,-0.1063,-0.1085,-0.1102,-0.1106,-0.1112,-0.1129,-0.1139,-0.115,-0.1161,-0.1188,-0.1201,-0.1202,-0.1213,-0.1204,-0.1205,-0.1208,-0.1254,-0.1255,-0.1194,-0.1194,-0.1194,-0.1194,-0.1194,-0.1194,-0.0985,-0.0983,-0.0999,-0.1005,-0.102,-0.1027,-0.1035,-0.1047,-0.106,-0.1071,-0.108,-0.1097,-0.1118,-0.1134,-0.1145,-0.1152,-0.1156,-0.1143,-0.1154,-0.1197,-0.1204,-0.1211,-0.1213,-0.1143,-0.1143,-0.1107,-0.1107,-0.1107]}]]